EW7164 Weather Reports


time (UTC)temp
C
wind
direction
speed
KPH
gust
KPH
rain 1hr
cm
rain 24hr
cm
rain mn
cm
humidity
%
barometer
mb
20260901081435 16 270 12.9 17.7 0.00 0.00 0.00 68 1019.2
20260901080532 16 270 9.7 12.9 0.00 0.00 0.00 68 1019.3
20260901075533 16 270 9.7 14.5 0.00 0.00 0.00 67 1019.2
20260901074535 16 262 9.7 14.5 0.00 0.00 0.00 65 1019.1
20260901073534 17 265 12.9 17.7 0.00 0.00 0.00 66 1019.0
20260901072632 17 250 12.9 19.3 0.00 0.00 0.00 66 1018.9
20260901072533 17 259 12.9 19.3 0.00 0.00 0.00 66 1019.0
20260901070534 16 353 4.8 8.0 0.00 0.00 0.00 66 1019.2
20260901065533 16 259 9.7 14.5 0.00 0.00 0.00 66 1019.0
20260901064536 16 327 3.2 6.4 0.00 0.00 0.00 67 1019.2
20260901064432 16 301 3.2 6.4 0.00 0.00 0.00 67 1019.2
20260901062433 15 360 4.8 6.4 0.00 0.00 0.00 70 1019.2
20260901060434 16 360 6.4 8.0 0.00 0.00 0.00 62 1019.0
20260901055532 16 7 4.8 6.4 0.00 0.00 0.00 63 1019.1
20260901055431 16 18 6.4 8.0 0.00 0.00 0.00 62 1019.0
20260901055332 16 28 6.4 6.4 0.00 0.00 0.00 63 1018.9
20260901054334 17 343 1.6 4.8 0.00 0.00 0.00 60 1019.0
20260901053433 17 253 12.9 17.7 0.00 0.00 0.00 58 1018.8
20260901050532 17 258 14.5 20.9 0.00 0.00 0.00 57 1019.0
20260901045535 17 258 17.7 24.1 0.00 0.00 0.00 56 1019.1
20260901044633 17 253 17.7 27.4 0.00 0.00 0.00 56 1019.1
20260901044535 17 254 17.7 25.7 0.00 0.00 0.00 56 1019.1
20260901043531 17 250 16.1 24.1 0.00 0.00 0.00 56 1019.2
20260901042533 17 255 12.9 17.7 0.00 0.00 0.00 55 1019.3
20260901040434 17 256 12.9 19.3 0.00 0.00 0.00 53 1019.1
20260901035442 17 254 12.9 22.5 0.00 0.00 0.00 52 1019.1
20260901034442 17 244 14.5 22.5 0.00 0.00 0.00 51 1019.3
20260901033441 17 247 19.3 30.6 0.00 0.00 0.00 51 1019.1
20260901032442 18 260 17.7 25.7 0.00 0.00 0.00 52 1019.2
20260901030544 18 254 11.3 17.7 0.00 0.08 0.00 50 1019.1
20260901025640 18 257 14.5 19.3 0.00 0.13 0.00 50 1019.1
20260901025542 18 246 12.9 20.9 0.00 0.13 0.00 50 1019.1
20260901024540 18 249 17.7 24.1 0.00 0.15 0.00 49 1019.1
20260901023541 18 257 19.3 27.4 0.00 0.15 0.00 49 1018.9
20260901022640 18 251 14.5 25.7 0.00 0.18 0.00 49 1018.9
20260901021642 18 248 16.1 24.1 0.00 0.20 0.00 48 1018.9
20260901020741 18 254 19.3 27.4 0.00 0.20 0.00 49 1019.1
20260901014740 17 254 14.5 22.5 0.00 0.23 0.00 48 1019.0
20260901014642 17 244 14.5 22.5 0.00 0.23 0.00 49 1019.1
20260901013642 17 256 19.3 27.4 0.00 0.23 0.00 51 1018.9
20260901012641 17 257 17.7 22.5 0.00 0.23 0.00 52 1019.1
20260901012543 17 252 20.9 30.6 0.00 0.23 0.00 52 1019.1
20260901010639 17 245 12.9 19.3 0.00 0.23 0.00 55 1019.2
20260901010539 17 243 11.3 19.3 0.00 0.23 0.00 55 1019.2
20260901005541 17 250 16.1 20.9 0.00 0.23 0.00 55 1019.1
20260901004542 17 240 14.5 20.9 0.00 0.30 0.00 55 1019.1
20260901003540 17 249 17.7 25.7 0.00 0.36 0.00 56 1019.1
20260901002541 17 263 20.9 30.6 0.00 0.43 0.00 55 1018.8
20260901000541 17 250 20.9 27.4 0.00 0.51 0.00 57 1018.8
20260831235542 17 258 20.9 32.2 0.00 0.53 0.00 58 1018.5
20260831234640 17 245 19.3 25.7 0.00 0.53 0.00 58 1018.5
20260831233641 17 250 16.1 35.4 0.00 0.53 0.00 57 1018.4
20260831232641 17 247 24.1 33.8 0.00 0.53 0.00 57 1018.3
20260831230641 18 245 16.1 25.7 0.00 0.56 0.00 58 1018.4
20260831225540 18 242 16.1 25.7 0.00 0.56 0.00 57 1018.4
20260831224541 19 246 19.3 27.4 0.00 0.56 0.00 57 1018.3
20260831223639 19 250 14.5 19.3 0.00 0.56 0.00 55 1018.5
20260831222641 20 242 12.9 17.7 0.00 0.56 0.00 55 1018.3
20260831221739 20 237 16.1 27.4 0.00 0.56 0.00 54 1018.3
20260831220743 20 230 14.5 20.9 0.00 0.56 0.00 54 1018.2
20260831220641 20 237 14.5 20.9 0.00 0.56 0.00 54 1018.3
20260831215740 20 230 12.9 17.7 0.00 0.56 0.00 56 1018.4
20260831213840 20 225 12.9 17.7 0.00 0.56 0.00 57 1018.2
20260831212842 21 222 12.9 17.7 0.00 0.56 0.00 56 1018.2
20260831211842 21 228 8.0 12.9 0.00 0.56 0.00 52 1018.2
20260831211739 21 231 4.8 9.7 0.00 0.56 0.00 52 1018.2
20260831210755 22 236 9.7 14.5 0.00 0.56 0.00 51 1018.1
20260831205841 22 199 6.4 8.0 0.00 0.56 0.00 46 1017.9
20260831204940 22 247 9.7 12.9 0.00 0.56 0.00 46 1018.1
20260831203942 22 221 6.4 11.3 0.00 0.56 0.00 45 1018.1
20260831202040 22 297 19.3 24.1 0.00 0.56 0.00 42 1018.0
20260831201940 23 304 17.7 27.4 0.00 0.56 0.00 42 1018.1
20260831200939 22 269 12.9 16.1 0.00 0.56 0.00 40 1018.2
20260831194942 22 270 4.8 6.4 0.00 0.56 0.00 43 1018.6
20260831192941 21 73 6.4 9.7 0.00 0.56 0.00 48 1018.7
20260831191942 21 105 6.4 8.0 0.00 0.56 0.00 50 1018.7
20260831190940 21 43 6.4 9.7 0.00 0.56 0.00 51 1018.9
20260831185942 21 76 9.7 12.9 0.00 0.56 0.00 52 1018.8
20260831184942 21 93 8.0 11.3 0.00 0.56 0.00 51 1019.0
20260831183941 21 58 11.3 14.5 0.00 0.56 0.00 50 1018.8
20260831182941 21 142 4.8 9.7 0.00 0.56 0.00 52 1019.2
20260831182041 21 81 8.0 11.3 0.00 0.56 0.00 49 1019.3
20260831181041 21 322 8.0 11.3 0.00 0.56 0.00 50 1019.3
20260831180943 21 353 1.6 8.0 0.00 0.56 0.00 50 1019.5
20260831175943 21 283 3.2 6.4 0.00 0.56 0.00 51 1019.3
20260831174940 21 123 4.8 8.0 0.00 0.56 0.00 51 1019.5
20260831174842 21 86 6.4 11.3 0.00 0.56 0.00 51 1019.6
20260831173840 21 79 6.4 9.7 0.00 0.56 0.00 51 1019.6
20260831172842 21 300 4.8 11.3 0.00 0.56 0.00 51 1019.5
20260831172740 21 303 8.0 14.5 0.00 0.56 0.00 51 1019.6
20260831171742 21 264 9.7 14.5 0.00 0.56 0.00 50 1019.7
20260831170742 21 45 3.2 6.4 0.00 0.56 0.00 53 1019.6
20260831165840 20 275 4.8 9.7 0.00 0.56 0.00 55 1019.6
20260831165741 20 267 8.0 12.9 0.00 0.56 0.00 55 1019.6
20260831164840 20 263 12.9 19.3 0.00 0.56 0.00 56 1019.7
20260831163840 20 267 9.7 14.5 0.00 0.56 0.00 56 1019.9
20260831162841 20 275 14.5 20.9 0.00 0.56 0.00 57 1019.8
20260831161940 19 277 8.0 11.3 0.00 0.56 0.00 58 1019.9
20260831160942 19 247 6.4 11.3 0.00 0.56 0.00 58 1019.9
20260831155942 19 323 4.8 11.3 0.00 0.56 0.00 57 1020.1
20260831154940 19 252 8.0 12.9 0.00 0.56 0.00 59 1020.4
20260831152940 18 346 12.9 19.3 0.00 0.56 0.00 60 1020.5
20260831151941 18 353 11.3 16.1 0.00 0.56 0.00 61 1020.5
20260831151040 18 330 9.7 12.9 0.00 0.56 0.00 62 1020.4
20260831150042 18 321 11.3 14.5 0.00 0.56 0.00 63 1020.5
20260831144041 17 341 16.1 20.9 0.00 0.56 0.00 66 1020.5
20260831143041 16 320 22.5 27.4 0.00 0.56 0.00 66 1020.3
20260831142055 16 312 17.7 20.9 0.00 0.56 0.00 67 1020.4
20260831141140 16 324 14.5 19.3 0.00 0.56 0.00 67 1020.3
20260831140142 16 7 14.5 20.9 0.00 0.56 0.00 69 1020.1
20260831135239 16 305 12.9 20.9 0.00 0.56 0.00 72 1020.0
20260831135142 16 325 11.3 16.1 0.00 0.56 0.00 73 1020.0
20260831134142 16 315 14.5 20.9 0.00 0.56 0.00 72 1019.9
20260831133241 15 270 9.7 12.9 0.00 0.56 0.00 75 1020.0
20260831132340 15 278 11.3 19.3 0.00 0.56 0.00 74 1020.0
20260831132243 15 270 11.3 17.7 0.00 0.56 0.00 74 1020.1
20260831131243 15 275 9.7 16.1 0.00 0.56 0.00 74 1020.0
20260831130239 15 313 9.7 14.5 0.00 0.56 0.00 73 1020.1
20260831125242 15 317 9.7 12.9 0.00 0.56 0.00 75 1020.1
20260831124239 15 311 9.7 12.9 0.00 0.56 0.00 76 1020.2
20260831123241 14 312 9.7 14.5 0.00 0.56 0.00 76 1020.1
20260831122340 13 315 6.4 9.7 0.00 0.56 0.00 79 1020.1
20260831122240 13 315 8.0 12.9 0.00 0.56 0.00 79 1020.2
20260831122141 13 318 6.4 9.7 0.00 0.56 0.00 79 1020.1
20260831121141 13 299 4.8 8.0 0.00 0.56 0.00 80 1020.1
20260831120140 13 309 12.9 19.3 0.00 0.56 0.00 80 1020.1
20260831115141 13 272 4.8 6.4 0.00 0.56 0.00 82 1020.1
20260831114239 13 283 8.0 11.3 0.00 0.56 0.00 84 1020.0
20260831113241 12 313 9.7 12.9 0.00 0.56 0.00 84 1019.8
20260831112339 12 313 11.3 17.7 0.00 0.56 0.00 85 1019.8
20260831111342 12 292 11.3 16.1 0.00 0.56 0.00 85 1019.7
20260831110339 12 310 9.7 16.1 0.00 0.56 0.00 86 1019.5
20260831105342 12 299 12.9 17.7 0.00 0.56 0.00 87 1019.4
20260831104341 12 294 12.9 17.7 0.00 0.56 0.00 87 1019.2
20260831103441 12 295 12.9 17.7 0.00 0.56 0.00 88 1019.3
20260831102458 12 307 9.7 14.5 0.00 0.56 0.00 88 1019.2
20260831101442 12 307 11.3 14.5 0.00 0.56 0.00 88 1019.0
20260831100440 12 295 12.9 17.7 0.00 0.56 0.00 89 1018.9
20260831095442 12 315 11.3 14.5 0.00 0.56 0.00 89 1018.8
20260831093541 12 313 11.3 12.9 0.00 0.56 0.00 88 1018.4
20260831090641 12 273 14.5 17.7 0.00 0.56 0.00 88 1018.1
20260831085641 12 294 14.5 17.7 0.00 0.56 0.00 87 1018.1
20260831084641 12 286 14.5 17.7 0.00 0.56 0.00 88 1018.1
20260831083642 12 278 11.3 16.1 0.00 0.56 0.00 89 1018.3
20260831082740 12 270 11.3 16.1 0.00 0.56 0.00 89 1018.1
20260831081743 12 270 11.3 16.1 0.00 0.56 0.00 88 1018.3